Time,TemperatureF,DewpointF,PressureIn,WindDirection,WindDirectionDegrees,WindSpeedMPH,WindSpeedGustMPH,Humidity,HourlyPrecipIn,Conditions,Clouds,dailyrainin,SoftwareType,DateUTC
2013-03-12 00:00:00,58.2,42.1,30.05,NNE,27,0.0,0.0,55,0.00,,,0.00,VWS V14.01,2013-03-12 07:00:00,
2013-03-12 00:05:00,58.2,42.6,30.05,NNE,27,0.0,0.0,56,0.00,,,0.00,VWS V14.01,2013-03-12 07:05:00,
2013-03-12 00:10:00,58.4,41.3,30.05,NNE,27,0.0,0.0,53,0.00,,,0.00,VWS V14.01,2013-03-12 07:10:00,
2013-03-12 00:15:00,58.6,40.0,30.05,NNE,27,0.0,0.0,50,0.00,,,0.00,VWS V14.01,2013-03-12 07:15:00,
2013-03-12 00:20:00,58.6,39.5,30.05,NNE,27,0.0,0.0,49,0.00,,,0.00,VWS V14.01,2013-03-12 07:20:00,
2013-03-12 00:25:00,58.4,39.3,30.05,NNE,27,0.0,0.0,49,0.00,,,0.00,VWS V14.01,2013-03-12 07:25:00,
2013-03-12 00:30:00,58.0,37.9,30.05,NNE,27,0.0,0.0,47,0.00,,,0.00,VWS V14.01,2013-03-12 07:30:00,
2013-03-12 00:35:00,57.8,36.6,30.05,NNE,27,0.0,0.0,45,0.00,,,0.00,VWS V14.01,2013-03-12 07:35:00,
2013-03-12 00:40:00,57.7,36.5,30.05,NNE,27,0.0,0.0,45,0.00,,,0.00,VWS V14.01,2013-03-12 07:40:00,
2013-03-12 00:45:00,57.8,37.2,30.05,NNE,27,0.0,0.0,46,0.00,,,0.00,VWS V14.01,2013-03-12 07:45:00,
2013-03-12 00:50:00,58.1,36.3,30.05,NNE,27,0.0,0.0,44,0.00,,,0.00,VWS V14.01,2013-03-12 07:50:00,
2013-03-12 00:55:00,57.7,36.0,30.05,NNE,27,0.0,0.0,44,0.00,,,0.00,VWS V14.01,2013-03-12 07:55:00,
2013-03-12 01:00:00,57.6,36.4,30.05,NNE,27,0.0,0.0,45,0.00,,,0.00,VWS V14.01,2013-03-12 08:00:00,
2013-03-12 01:05:00,58.4,36.0,30.05,NNE,27,0.0,0.0,43,0.00,,,0.00,VWS V14.01,2013-03-12 08:05:00,
2013-03-12 01:10:00,59.3,36.2,30.05,SE,144,2.0,2.0,42,0.00,,,0.00,VWS V14.01,2013-03-12 08:10:00,
2013-03-12 01:15:00,60.0,36.2,30.05,SE,128,0.0,1.0,41,0.00,,,0.00,VWS V14.01,2013-03-12 08:15:00,
2013-03-12 01:20:00,59.3,36.8,30.05,NNW,336,1.0,2.0,43,0.00,,,0.00,VWS V14.01,2013-03-12 08:20:00,
2013-03-12 01:25:00,58.5,39.4,30.05,NW,319,1.0,2.0,49,0.00,,,0.00,VWS V14.01,2013-03-12 08:25:00,
2013-03-12 01:30:00,58.3,38.7,30.05,NW,319,1.0,1.0,48,0.00,,,0.00,VWS V14.01,2013-03-12 08:30:00,
2013-03-12 01:35:00,58.4,38.8,30.05,NW,319,0.0,0.0,48,0.00,,,0.00,VWS V14.01,2013-03-12 08:35:00,
2013-03-12 01:40:00,58.2,39.7,30.05,NW,319,0.0,0.0,50,0.00,,,0.00,VWS V14.01,2013-03-12 08:40:00,
2013-03-12 01:45:00,57.8,38.8,30.05,NW,319,0.0,0.0,49,0.00,,,0.00,VWS V14.01,2013-03-12 08:45:00,
2013-03-12 01:50:00,57.6,39.1,30.05,NW,319,0.0,0.0,50,0.00,,,0.00,VWS V14.01,2013-03-12 08:50:00,
2013-03-12 01:55:00,57.8,38.3,30.05,West,259,0.0,0.0,48,0.00,,,0.00,VWS V14.01,2013-03-12 08:55:00,
2013-03-12 02:00:00,58.1,38.0,30.05,West,259,0.0,0.0,47,0.00,,,0.00,VWS V14.01,2013-03-12 09:00:00,
2013-03-12 02:05:00,58.5,36.7,30.05,SSW,208,0.0,0.0,44,0.00,,,0.00,VWS V14.01,2013-03-12 09:05:00,
2013-03-12 02:10:00,58.7,35.7,30.05,SSW,208,0.0,0.0,42,0.00,,,0.00,VWS V14.01,2013-03-12 09:10:00,
2013-03-12 02:15:00,58.9,35.9,30.05,SSW,208,0.0,0.0,42,0.00,,,0.00,VWS V14.01,2013-03-12 09:15:00,
2013-03-12 02:20:00,58.7,36.9,30.05,SSW,208,0.0,0.0,44,0.00,,,0.00,VWS V14.01,2013-03-12 09:20:00,
2013-03-12 02:25:00,59.2,37.3,30.05,SSW,208,0.0,0.0,44,0.00,,,0.00,VWS V14.01,2013-03-12 09:25:00,
2013-03-12 02:30:00,59.1,38.4,30.05,North,359,1.0,2.0,46,0.00,,,0.00,VWS V14.01,2013-03-12 09:30:00,
2013-03-12 02:35:00,58.7,39.1,30.05,North,359,1.0,1.0,48,0.00,,,0.00,VWS V14.01,2013-03-12 09:35:00,
2013-03-12 02:40:00,58.4,39.3,30.05,North,359,0.0,0.0,49,0.00,,,0.00,VWS V14.01,2013-03-12 09:40:00,
2013-03-12 02:45:00,57.8,38.8,30.04,North,358,0.0,1.0,49,0.00,,,0.00,VWS V14.01,2013-03-12 09:45:00,
2013-03-12 02:50:00,57.5,38.0,30.04,North,359,0.0,0.0,48,0.00,,,0.00,VWS V14.01,2013-03-12 09:50:00,
2013-03-12 02:55:00,57.1,38.1,30.04,North,359,0.0,0.0,49,0.00,,,0.00,VWS V14.01,2013-03-12 09:55:00,
2013-03-12 03:00:00,57.1,38.7,30.04,NNE,26,0.0,0.0,50,0.00,,,0.00,VWS V14.01,2013-03-12 10:00:00,
2013-03-12 03:05:00,57.0,38.0,30.03,NNE,26,0.0,1.0,49,0.00,,,0.00,VWS V14.01,2013-03-12 10:05:00,
2013-03-12 03:10:00,56.9,38.5,30.03,ESE,117,1.0,2.0,50,0.00,,,0.00,VWS V14.01,2013-03-12 10:10:00,
2013-03-12 03:15:00,57.0,38.6,30.03,ENE,65,1.0,1.0,50,0.00,,,0.00,VWS V14.01,2013-03-12 10:15:00,
2013-03-12 03:20:00,57.0,38.6,30.03,ENE,63,0.0,0.0,50,0.00,,,0.00,VWS V14.01,2013-03-12 10:20:00,
2013-03-12 03:25:00,56.9,38.0,30.03,ENE,63,0.0,0.0,49,0.00,,,0.00,VWS V14.01,2013-03-12 10:25:00,
2013-03-12 03:30:00,56.8,37.9,30.03,ENE,64,0.0,0.0,49,0.00,,,0.00,VWS V14.01,2013-03-12 10:30:00,
2013-03-12 03:35:00,56.6,38.7,30.03,ENE,63,0.0,0.0,51,0.00,,,0.00,VWS V14.01,2013-03-12 10:35:00,
2013-03-12 03:40:00,56.4,38.5,30.02,ENE,63,0.0,0.0,51,0.00,,,0.00,VWS V14.01,2013-03-12 10:40:00,
2013-03-12 03:45:00,56.1,38.7,30.02,ENE,63,0.0,0.0,52,0.00,,,0.00,VWS V14.01,2013-03-12 10:45:00,
2013-03-12 03:50:00,56.1,38.2,30.02,NNW,342,1.0,1.0,51,0.00,,,0.00,VWS V14.01,2013-03-12 10:50:00,
2013-03-12 03:55:00,56.7,36.7,30.02,WNW,297,2.0,2.0,47,0.00,,,0.00,VWS V14.01,2013-03-12 10:55:00,
2013-03-12 04:00:00,57.3,36.2,30.02,WNW,297,1.0,2.0,45,0.00,,,0.00,VWS V14.01,2013-03-12 11:00:00,
2013-03-12 04:05:00,57.6,36.4,30.02,WNW,299,1.0,2.0,45,0.00,,,0.00,VWS V14.01,2013-03-12 11:05:00,
2013-03-12 04:10:00,57.7,36.5,30.02,WNW,300,1.0,1.0,45,0.00,,,0.00,VWS V14.01,2013-03-12 11:10:00,
2013-03-12 04:15:00,57.6,36.4,30.01,NW,323,1.0,1.0,45,0.00,,,0.00,VWS V14.01,2013-03-12 11:15:00,
2013-03-12 04:20:00,57.4,36.8,30.01,NNE,19,0.0,2.0,46,0.00,,,0.00,VWS V14.01,2013-03-12 11:20:00,
2013-03-12 04:25:00,57.2,36.6,30.01,NNE,19,1.0,1.0,46,0.00,,,0.00,VWS V14.01,2013-03-12 11:25:00,
2013-03-12 04:30:00,57.2,36.6,30.01,NNE,19,0.0,0.0,46,0.00,,,0.00,VWS V14.01,2013-03-12 11:30:00,
2013-03-12 04:35:00,56.8,36.8,30.01,NNE,19,0.0,0.0,47,0.00,,,0.00,VWS V14.01,2013-03-12 11:35:00,
2013-03-12 04:40:00,56.4,36.4,30.01,NNE,19,0.0,0.0,47,0.00,,,0.00,VWS V14.01,2013-03-12 11:40:00,
2013-03-12 04:45:00,56.3,36.3,30.01,NNE,15,0.0,0.0,47,0.00,,,0.00,VWS V14.01,2013-03-12 11:45:00,
2013-03-12 04:50:00,56.4,35.9,30.01,NW,314,0.0,0.0,46,0.00,,,0.00,VWS V14.01,2013-03-12 11:50:00,
2013-03-12 04:55:00,56.6,36.1,30.01,NW,306,1.0,1.0,46,0.00,,,0.00,VWS V14.01,2013-03-12 11:55:00,
2013-03-12 05:00:00,57.0,35.3,30.01,West,278,0.0,1.0,44,0.00,,,0.00,VWS V14.01,2013-03-12 12:00:00,
2013-03-12 05:05:00,57.2,34.9,30.01,West,278,0.0,0.0,43,0.00,,,0.00,VWS V14.01,2013-03-12 12:05:00,
2013-03-12 05:10:00,57.2,35.5,30.01,NW,326,1.0,1.0,44,0.00,,,0.00,VWS V14.01,2013-03-12 12:10:00,
2013-03-12 05:15:00,57.0,34.8,30.01,WNW,284,0.0,0.0,43,0.00,,,0.00,VWS V14.01,2013-03-12 12:15:00,
2013-03-12 05:20:00,57.0,34.8,30.01,WNW,284,1.0,1.0,43,0.00,,,0.00,VWS V14.01,2013-03-12 12:20:00,
2013-03-12 05:25:00,57.7,35.4,30.01,NW,313,1.0,1.0,43,0.00,,,0.00,VWS V14.01,2013-03-12 12:25:00,
2013-03-12 05:30:00,57.8,34.9,30.01,West,271,0.0,0.0,42,0.00,,,0.00,VWS V14.01,2013-03-12 12:30:00,
2013-03-12 05:35:00,57.8,34.9,30.01,West,271,0.0,0.0,42,0.00,,,0.00,VWS V14.01,2013-03-12 12:35:00,
2013-03-12 05:40:00,57.8,34.9,30.01,West,271,0.0,0.0,42,0.00,,,0.00,VWS V14.01,2013-03-12 12:40:00,
2013-03-12 05:45:00,57.9,34.4,30.01,West,271,0.0,0.0,41,0.00,,,0.00,VWS V14.01,2013-03-12 12:45:00,
2013-03-12 05:50:00,58.2,34.6,30.00,NW,326,0.0,0.0,41,0.00,,,0.00,VWS V14.01,2013-03-12 12:50:00,
2013-03-12 05:55:00,58.0,34.5,30.01,NW,326,0.0,0.0,41,0.00,,,0.00,VWS V14.01,2013-03-12 12:55:00,
2013-03-12 06:00:00,58.0,35.1,30.01,NNE,18,0.0,0.0,42,0.00,,,0.00,VWS V14.01,2013-03-12 13:00:00,
2013-03-12 06:05:00,57.9,35.0,30.01,North,360,0.0,0.0,42,0.00,,,0.00,VWS V14.01,2013-03-12 13:05:00,
2013-03-12 06:10:00,57.6,35.3,30.01,North,360,0.0,0.0,43,0.00,,,0.00,VWS V14.01,2013-03-12 13:10:00,
2013-03-12 06:15:00,57.1,34.8,30.01,North,360,0.0,0.0,43,0.00,,,0.00,VWS V14.01,2013-03-12 13:15:00,
2013-03-12 06:20:00,56.6,35.0,30.01,North,360,0.0,0.0,44,0.00,,,0.00,VWS V14.01,2013-03-12 13:20:00,
2013-03-12 06:25:00,56.2,34.6,30.01,North,360,0.0,0.0,44,0.00,,,0.00,VWS V14.01,2013-03-12 13:25:00,
2013-03-12 06:30:00,55.9,35.4,30.01,SSE,150,1.0,1.0,46,0.00,,,0.00,VWS V14.01,2013-03-12 13:30:00,
2013-03-12 06:35:00,56.0,35.5,30.01,SSE,150,1.0,1.0,46,0.00,,,0.00,VWS V14.01,2013-03-12 13:35:00,
2013-03-12 06:40:00,56.1,35.6,30.01,SSE,150,1.0,1.0,46,0.00,,,0.00,VWS V14.01,2013-03-12 13:40:00,
2013-03-12 06:45:00,56.5,35.4,30.01,SSE,150,0.0,0.0,45,0.00,,,0.00,VWS V14.01,2013-03-12 13:45:00,
2013-03-12 06:50:00,56.5,34.9,30.01,SSE,150,0.0,0.0,44,0.00,,,0.00,VWS V14.01,2013-03-12 13:50:00,
2013-03-12 06:55:00,56.5,35.4,30.01,SSE,150,0.0,0.0,45,0.00,,,0.00,VWS V14.01,2013-03-12 13:55:00,
2013-03-12 07:00:00,56.6,35.5,30.01,SSE,150,0.0,0.0,45,0.00,,,0.00,VWS V14.01,2013-03-12 14:00:00,
2013-03-12 07:05:00,56.7,35.6,30.02,SSE,150,0.0,0.0,45,0.00,,,0.00,VWS V14.01,2013-03-12 14:05:00,
2013-03-12 07:10:00,57.1,35.4,30.02,SSE,150,1.0,1.0,44,0.00,,,0.00,VWS V14.01,2013-03-12 14:10:00,
2013-03-12 07:15:00,57.4,35.7,30.02,NW,304,2.0,2.0,44,0.00,,,0.00,VWS V14.01,2013-03-12 14:15:00,
2013-03-12 07:20:00,57.8,36.0,30.02,WNW,301,1.0,2.0,44,0.00,,,0.00,VWS V14.01,2013-03-12 14:20:00,
2013-03-12 07:25:00,58.0,36.2,30.02,NW,304,1.0,2.0,44,0.00,,,0.00,VWS V14.01,2013-03-12 14:25:00,
2013-03-12 07:30:00,58.1,35.7,30.02,NW,314,3.0,3.0,43,0.00,,,0.00,VWS V14.01,2013-03-12 14:30:00,
2013-03-12 07:35:00,58.0,35.7,30.02,NW,311,1.0,2.0,43,0.00,,,0.00,VWS V14.01,2013-03-12 14:35:00,
2013-03-12 07:40:00,58.1,35.7,30.02,West,280,2.0,2.0,43,0.00,,,0.00,VWS V14.01,2013-03-12 14:40:00,
2013-03-12 07:45:00,58.4,34.8,30.03,NW,320,2.0,2.0,41,0.00,,,0.00,VWS V14.01,2013-03-12 14:45:00,
2013-03-12 07:50:00,58.4,34.8,30.03,WNW,290,1.0,2.0,41,0.00,,,0.00,VWS V14.01,2013-03-12 14:50:00,
2013-03-12 07:55:00,58.5,34.3,30.03,WNW,283,2.0,4.0,40,0.00,,,0.00,VWS V14.01,2013-03-12 14:55:00,
2013-03-12 08:00:00,58.6,34.4,30.03,NW,316,2.0,2.0,40,0.00,,,0.00,VWS V14.01,2013-03-12 15:00:00,
2013-03-12 08:05:00,58.7,34.5,30.04,NW,318,3.0,3.0,40,0.00,,,0.00,VWS V14.01,2013-03-12 15:05:00,
2013-03-12 08:10:00,58.8,33.9,30.04,NW,318,0.0,2.0,39,0.00,,,0.00,VWS V14.01,2013-03-12 15:10:00,
2013-03-12 08:15:00,58.9,34.6,30.04,WNW,299,1.0,1.0,40,0.00,,,0.00,VWS V14.01,2013-03-12 15:15:00,
2013-03-12 08:20:00,59.0,34.1,30.04,WNW,300,0.0,1.0,39,0.00,,,0.00,VWS V14.01,2013-03-12 15:20:00,
2013-03-12 08:25:00,59.2,34.3,30.04,WNW,297,0.0,0.0,39,0.00,,,0.00,VWS V14.01,2013-03-12 15:25:00,
2013-03-12 08:30:00,59.8,34.2,30.05,WNW,298,1.0,1.0,38,0.00,,,0.00,VWS V14.01,2013-03-12 15:30:00,
2013-03-12 08:35:00,61.1,36.6,30.05,WNW,298,0.0,1.0,40,0.00,,,0.00,VWS V14.01,2013-03-12 15:35:00,
2013-03-12 08:40:00,62.9,35.6,30.05,WNW,298,0.0,0.0,36,0.00,,,0.00,VWS V14.01,2013-03-12 15:40:00,
2013-03-12 08:45:00,64.1,35.9,30.05,WNW,298,0.0,0.0,35,0.00,,,0.00,VWS V14.01,2013-03-12 15:45:00,
2013-03-12 08:50:00,65.6,37.2,30.05,ESE,118,1.0,2.0,35,0.00,,,0.00,VWS V14.01,2013-03-12 15:50:00,
2013-03-12 08:55:00,64.5,36.3,30.05,SE,124,0.0,2.0,35,0.00,,,0.00,VWS V14.01,2013-03-12 15:55:00,
2013-03-12 09:00:00,65.0,36.7,30.05,SE,136,0.0,0.0,35,0.00,,,0.00,VWS V14.01,2013-03-12 16:00:00,
2013-03-12 09:05:00,65.8,35.9,30.05,SSE,152,1.0,2.0,33,0.00,,,0.00,VWS V14.01,2013-03-12 16:05:00,
2013-03-12 09:10:00,66.4,35.7,30.06,SSE,153,0.0,1.0,32,0.00,,,0.00,VWS V14.01,2013-03-12 16:10:00,
2013-03-12 09:15:00,65.7,34.3,30.06,SSE,152,2.0,2.0,31,0.00,,,0.00,VWS V14.01,2013-03-12 16:15:00,
2013-03-12 09:20:00,64.9,34.4,30.06,NE,34,1.0,2.0,32,0.00,,,0.00,VWS V14.01,2013-03-12 16:20:00,
2013-03-12 09:25:00,64.7,34.2,30.06,North,358,1.0,2.0,32,0.00,,,0.00,VWS V14.01,2013-03-12 16:25:00,
2013-03-12 09:30:00,64.6,34.1,30.06,North,358,1.0,2.0,32,0.00,,,0.00,VWS V14.01,2013-03-12 16:30:00,
2013-03-12 09:35:00,64.5,34.0,30.06,North,351,1.0,1.0,32,0.00,,,0.00,VWS V14.01,2013-03-12 16:35:00,
2013-03-12 09:40:00,64.5,34.8,30.06,NW,321,2.0,2.0,33,0.00,,,0.00,VWS V14.01,2013-03-12 16:40:00,
2013-03-12 09:45:00,64.4,33.9,30.07,NNW,338,1.0,1.0,32,0.00,,,0.00,VWS V14.01,2013-03-12 16:45:00,
2013-03-12 09:50:00,64.8,35.0,30.07,NNW,338,1.0,1.0,33,0.00,,,0.00,VWS V14.01,2013-03-12 16:50:00,
2013-03-12 09:55:00,65.2,36.2,30.06,NNW,339,0.0,0.0,34,0.00,,,0.00,VWS V14.01,2013-03-12 16:55:00,
2013-03-12 10:00:00,65.6,36.5,30.06,NNW,338,0.0,1.0,34,0.00,,,0.00,VWS V14.01,2013-03-12 17:00:00,
2013-03-12 10:05:00,66.1,37.7,30.06,North,358,1.0,2.0,35,0.00,,,0.00,VWS V14.01,2013-03-12 17:05:00,
2013-03-12 10:10:00,66.4,37.2,30.06,NNW,337,1.0,2.0,34,0.00,,,0.00,VWS V14.01,2013-03-12 17:10:00,
2013-03-12 10:15:00,66.7,37.5,30.07,North,357,2.0,2.0,34,0.00,,,0.00,VWS V14.01,2013-03-12 17:15:00,
2013-03-12 10:20:00,66.8,37.6,30.07,NNW,329,2.0,2.0,34,0.00,,,0.00,VWS V14.01,2013-03-12 17:20:00,
2013-03-12 10:25:00,67.0,37.7,30.07,North,359,2.0,3.0,34,0.00,,,0.00,VWS V14.01,2013-03-12 17:25:00,
2013-03-12 10:30:00,67.3,38.0,30.07,NNW,333,2.0,3.0,34,0.00,,,0.00,VWS V14.01,2013-03-12 17:30:00,
2013-03-12 10:35:00,67.6,38.3,30.07,NW,319,2.0,4.0,34,0.00,,,0.00,VWS V14.01,2013-03-12 17:35:00,
2013-03-12 10:40:00,67.8,37.7,30.07,North,11,1.0,1.0,33,0.00,,,0.00,VWS V14.01,2013-03-12 17:40:00,
2013-03-12 10:45:00,68.1,37.9,30.07,North,354,2.0,3.0,33,0.00,,,0.00,VWS V14.01,2013-03-12 17:45:00,
2013-03-12 10:50:00,68.6,38.4,30.07,NNW,327,2.0,2.0,33,0.00,,,0.00,VWS V14.01,2013-03-12 17:50:00,
2013-03-12 10:55:00,69.0,37.1,30.07,North,351,1.0,2.0,31,0.00,,,0.00,VWS V14.01,2013-03-12 17:55:00,
2013-03-12 11:00:00,69.4,38.3,30.07,NNW,345,2.0,3.0,32,0.00,,,0.00,VWS V14.01,2013-03-12 18:00:00,
2013-03-12 11:05:00,69.9,37.1,30.07,NNW,336,1.0,2.0,30,0.00,,,0.00,VWS V14.01,2013-03-12 18:05:00,
2013-03-12 11:10:00,70.1,38.1,30.07,North,355,4.0,4.0,31,0.00,,,0.00,VWS V14.01,2013-03-12 18:10:00,
2013-03-12 11:15:00,70.2,37.3,30.07,NNW,334,3.0,5.0,30,0.00,,,0.00,VWS V14.01,2013-03-12 18:15:00,
2013-03-12 11:20:00,70.2,37.3,30.06,NNW,335,1.0,2.0,30,0.00,,,0.00,VWS V14.01,2013-03-12 18:20:00,
2013-03-12 11:25:00,70.6,37.7,30.06,NW,313,1.0,3.0,30,0.00,,,0.00,VWS V14.01,2013-03-12 18:25:00,
2013-03-12 11:30:00,71.0,37.2,30.06,NNE,20,1.0,1.0,29,0.00,,,0.00,VWS V14.01,2013-03-12 18:30:00,
2013-03-12 11:35:00,71.5,34.8,30.06,NW,304,2.0,3.0,26,0.00,,,0.00,VWS V14.01,2013-03-12 18:35:00,
2013-03-12 11:40:00,71.9,36.1,30.07,NW,318,1.0,1.0,27,0.00,,,0.00,VWS V14.01,2013-03-12 18:40:00,
2013-03-12 11:45:00,72.6,33.8,30.06,North,1,3.0,4.0,24,0.00,,,0.00,VWS V14.01,2013-03-12 18:45:00,
2013-03-12 11:50:00,72.7,34.9,30.06,NNW,329,3.0,3.0,25,0.00,,,0.00,VWS V14.01,2013-03-12 18:50:00,
2013-03-12 11:55:00,72.9,34.0,30.06,NW,312,2.0,3.0,24,0.00,,,0.00,VWS V14.01,2013-03-12 18:55:00,
2013-03-12 12:00:00,73.3,36.4,30.06,NNE,12,0.0,1.0,26,0.00,,,0.00,VWS V14.01,2013-03-12 19:00:00,
2013-03-12 12:05:00,73.8,36.8,30.06,NE,50,2.0,2.0,26,0.00,,,0.00,VWS V14.01,2013-03-12 19:05:00,
2013-03-12 12:10:00,74.4,35.3,30.06,NW,319,1.0,1.0,24,0.00,,,0.00,VWS V14.01,2013-03-12 19:10:00,
2013-03-12 12:15:00,74.7,34.5,30.06,NW,325,3.0,7.0,23,0.00,,,0.00,VWS V14.01,2013-03-12 19:15:00,
2013-03-12 12:20:00,74.6,34.4,30.06,NNE,13,2.0,5.0,23,0.00,,,0.00,VWS V14.01,2013-03-12 19:20:00,
2013-03-12 12:25:00,74.5,34.3,30.06,NNW,328,1.0,3.0,23,0.00,,,0.00,VWS V14.01,2013-03-12 19:25:00,
2013-03-12 12:30:00,74.8,35.6,30.05,North,354,3.0,3.0,24,0.00,,,0.00,VWS V14.01,2013-03-12 19:30:00,
2013-03-12 12:35:00,75.1,35.9,30.05,NNW,347,1.0,4.0,24,0.00,,,0.00,VWS V14.01,2013-03-12 19:35:00,
2013-03-12 12:40:00,75.5,36.2,30.05,North,349,2.0,3.0,24,0.00,,,0.00,VWS V14.01,2013-03-12 19:40:00,
2013-03-12 12:45:00,75.6,35.2,30.05,NW,324,1.0,1.0,23,0.00,,,0.00,VWS V14.01,2013-03-12 19:45:00,
2013-03-12 12:50:00,76.1,34.5,30.05,NW,305,2.0,3.0,22,0.00,,,0.00,VWS V14.01,2013-03-12 19:50:00,
2013-03-12 12:55:00,76.6,36.1,30.05,North,352,1.0,4.0,23,0.00,,,0.00,VWS V14.01,2013-03-12 19:55:00,
2013-03-12 13:00:00,76.9,36.3,30.04,WNW,302,1.0,2.0,23,0.00,,,0.00,VWS V14.01,2013-03-12 20:00:00,
2013-03-12 13:05:00,77.5,38.9,30.04,East,98,1.0,3.0,25,0.00,,,0.00,VWS V14.01,2013-03-12 20:05:00,
2013-03-12 13:10:00,78.3,39.6,30.04,East,97,2.0,5.0,25,0.00,,,0.00,VWS V14.01,2013-03-12 20:10:00,
2013-03-12 13:15:00,78.8,41.0,30.04,NNW,331,1.0,1.0,26,0.00,,,0.00,VWS V14.01,2013-03-12 20:15:00,
2013-03-12 13:20:00,78.9,41.1,30.04,SE,136,1.0,1.0,26,0.00,,,0.00,VWS V14.01,2013-03-12 20:20:00,
2013-03-12 13:25:00,79.2,43.3,30.03,NNE,22,2.0,3.0,28,0.00,,,0.00,VWS V14.01,2013-03-12 20:25:00,
2013-03-12 13:30:00,79.3,41.5,30.03,SE,132,3.0,3.0,26,0.00,,,0.00,VWS V14.01,2013-03-12 20:30:00,
2013-03-12 13:35:00,80.0,42.1,30.03,WNW,295,1.0,1.0,26,0.00,,,0.00,VWS V14.01,2013-03-12 20:35:00,
2013-03-12 13:40:00,80.3,39.2,30.02,NE,46,1.0,5.0,23,0.00,,,0.00,VWS V14.01,2013-03-12 20:40:00,
2013-03-12 13:45:00,80.3,39.2,30.02,SE,146,1.0,1.0,23,0.00,,,0.00,VWS V14.01,2013-03-12 20:45:00,
2013-03-12 13:50:00,80.8,43.7,30.02,SE,146,2.0,6.0,27,0.00,,,0.00,VWS V14.01,2013-03-12 20:50:00,
2013-03-12 13:55:00,81.4,43.3,30.02,SSE,157,5.0,5.0,26,0.00,,,0.00,VWS V14.01,2013-03-12 20:55:00,
2013-03-12 14:00:00,81.5,40.2,30.02,NNE,22,1.0,5.0,23,0.00,,,0.00,VWS V14.01,2013-03-12 21:00:00,
2013-03-12 14:05:00,81.8,40.4,30.01,South,188,0.0,7.0,23,0.00,,,0.00,VWS V14.01,2013-03-12 21:05:00,
2013-03-12 14:10:00,81.8,40.4,30.01,ESE,109,2.0,7.0,23,0.00,,,0.00,VWS V14.01,2013-03-12 21:10:00,
2013-03-12 14:15:00,81.9,36.9,30.01,ENE,65,2.0,3.0,20,0.00,,,0.00,VWS V14.01,2013-03-12 21:15:00,
2013-03-12 14:20:00,81.0,37.4,30.01,East,79,2.0,3.0,21,0.00,,,0.00,VWS V14.01,2013-03-12 21:20:00,
2013-03-12 14:25:00,81.2,32.3,30.01,East,100,3.0,6.0,17,0.00,,,0.00,VWS V14.01,2013-03-12 21:25:00,
2013-03-12 14:30:00,81.0,33.5,30.01,ENE,75,0.0,3.0,18,0.00,,,0.00,VWS V14.01,2013-03-12 21:30:00,
2013-03-12 14:35:00,81.1,35.0,30.01,ENE,65,0.0,3.0,19,0.00,,,0.00,VWS V14.01,2013-03-12 21:35:00,
2013-03-12 14:40:00,82.1,34.4,30.01,ESE,113,6.0,6.0,18,0.00,,,0.00,VWS V14.01,2013-03-12 21:40:00,
2013-03-12 14:45:00,82.3,34.6,30.01,ESE,118,0.0,5.0,18,0.00,,,0.00,VWS V14.01,2013-03-12 21:45:00,
2013-03-12 14:50:00,82.0,31.4,30.00,SE,124,3.0,5.0,16,0.00,,,0.00,VWS V14.01,2013-03-12 21:50:00,
2013-03-12 14:55:00,81.4,35.2,30.00,ESE,121,6.0,6.0,19,0.00,,,0.00,VWS V14.01,2013-03-12 21:55:00,
2013-03-12 15:00:00,80.9,34.8,30.00,ESE,105,5.0,6.0,19,0.00,,,0.00,VWS V14.01,2013-03-12 22:00:00,
2013-03-12 15:05:00,80.8,36.0,30.00,East,82,2.0,5.0,20,0.00,,,0.00,VWS V14.01,2013-03-12 22:05:00,
2013-03-12 15:10:00,80.7,34.7,30.00,ESE,103,7.0,7.0,19,0.00,,,0.00,VWS V14.01,2013-03-12 22:10:00,
2013-03-12 15:15:00,80.9,34.8,30.00,South,176,4.0,5.0,19,0.00,,,0.00,VWS V14.01,2013-03-12 22:15:00,
2013-03-12 15:20:00,80.8,32.0,30.00,SSE,150,7.0,10.0,17,0.00,,,0.00,VWS V14.01,2013-03-12 22:20:00,
2013-03-12 15:25:00,80.4,34.4,30.00,SSE,153,2.0,6.0,19,0.00,,,0.00,VWS V14.01,2013-03-12 22:25:00,
2013-03-12 15:30:00,80.5,33.1,30.00,South,174,4.0,7.0,18,0.00,,,0.00,VWS V14.01,2013-03-12 22:30:00,
2013-03-12 15:35:00,80.5,33.1,29.99,SE,146,8.0,8.0,18,0.00,,,0.00,VWS V14.01,2013-03-12 22:35:00,
2013-03-12 15:40:00,80.6,33.2,29.99,SSE,157,6.0,8.0,18,0.00,,,0.00,VWS V14.01,2013-03-12 22:40:00,
2013-03-12 15:45:00,80.4,33.1,30.00,SSE,149,5.0,7.0,18,0.00,,,0.00,VWS V14.01,2013-03-12 22:45:00,
2013-03-12 15:50:00,80.1,32.8,29.99,SSE,151,10.0,10.0,18,0.00,,,0.00,VWS V14.01,2013-03-12 22:50:00,
2013-03-12 15:55:00,79.5,32.3,29.99,SE,146,6.0,8.0,18,0.00,,,0.00,VWS V14.01,2013-03-12 22:55:00,
2013-03-12 16:00:00,79.5,32.3,29.99,SW,229,2.0,7.0,18,0.00,,,0.00,VWS V14.01,2013-03-12 23:00:00,
2013-03-12 16:05:00,79.5,30.9,29.99,SE,144,3.0,10.0,17,0.00,,,0.00,VWS V14.01,2013-03-12 23:05:00,
2013-03-12 16:10:00,79.4,29.3,29.99,ESE,115,11.0,11.0,16,0.00,,,0.00,VWS V14.01,2013-03-12 23:10:00,
2013-03-12 16:15:00,79.4,27.8,29.99,SE,146,10.0,11.0,15,0.00,,,0.00,VWS V14.01,2013-03-12 23:15:00,
2013-03-12 16:20:00,79.0,25.8,29.99,South,175,9.0,10.0,14,0.00,,,0.00,VWS V14.01,2013-03-12 23:20:00,
2013-03-12 16:25:00,78.9,25.7,29.99,SSE,152,7.0,10.0,14,0.00,,,0.00,VWS V14.01,2013-03-12 23:25:00,
2013-03-12 16:30:00,78.9,27.4,29.99,SE,137,4.0,7.0,15,0.00,,,0.00,VWS V14.01,2013-03-12 23:30:00,
2013-03-12 16:35:00,78.8,28.9,29.99,SSE,149,7.0,9.0,16,0.00,,,0.00,VWS V14.01,2013-03-12 23:35:00,
2013-03-12 16:40:00,78.6,28.7,29.99,SSE,166,5.0,7.0,16,0.00,,,0.00,VWS V14.01,2013-03-12 23:40:00,
2013-03-12 16:45:00,78.7,30.3,29.99,SSE,162,7.0,7.0,17,0.00,,,0.00,VWS V14.01,2013-03-12 23:45:00,
2013-03-12 16:50:00,78.6,30.2,29.99,SE,129,4.0,5.0,17,0.00,,,0.00,VWS V14.01,2013-03-12 23:50:00,
2013-03-12 16:55:00,78.6,32.9,29.99,SE,146,5.0,8.0,19,0.00,,,0.00,VWS V14.01,2013-03-12 23:55:00,
2013-03-12 17:00:00,78.4,34.0,29.99,SE,143,6.0,7.0,20,0.00,,,0.00,VWS V14.01,2013-03-13 00:00:00,
2013-03-12 17:05:00,77.8,32.3,29.99,ESE,122,4.0,5.0,19,0.00,,,0.00,VWS V14.01,2013-03-13 00:05:00,
2013-03-12 17:10:00,77.5,32.0,29.98,South,172,5.0,9.0,19,0.00,,,0.00,VWS V14.01,2013-03-13 00:10:00,
2013-03-12 17:15:00,77.3,33.1,29.98,South,172,4.0,6.0,20,0.00,,,0.00,VWS V14.01,2013-03-13 00:15:00,
2013-03-12 17:20:00,77.0,32.9,29.99,SSE,156,4.0,5.0,20,0.00,,,0.00,VWS V14.01,2013-03-13 00:20:00,
2013-03-12 17:25:00,76.9,34.0,29.99,SSE,149,5.0,7.0,21,0.00,,,0.00,VWS V14.01,2013-03-13 00:25:00,
2013-03-12 17:30:00,77.1,34.2,29.98,SSE,165,5.0,5.0,21,0.00,,,0.00,VWS V14.01,2013-03-13 00:30:00,
2013-03-12 17:35:00,77.2,33.1,29.98,SSE,153,3.0,6.0,20,0.00,,,0.00,VWS V14.01,2013-03-13 00:35:00,
2013-03-12 17:40:00,77.2,30.5,29.98,SE,146,4.0,6.0,18,0.00,,,0.00,VWS V14.01,2013-03-13 00:40:00,
2013-03-12 17:45:00,77.3,30.5,29.99,SE,143,6.0,6.0,18,0.00,,,0.00,VWS V14.01,2013-03-13 00:45:00,
2013-03-12 17:50:00,77.1,27.5,29.98,SE,141,6.0,6.0,16,0.00,,,0.00,VWS V14.01,2013-03-13 00:50:00,
2013-03-12 17:55:00,76.9,27.3,29.99,SSE,162,3.0,6.0,16,0.00,,,0.00,VWS V14.01,2013-03-13 00:55:00,
2013-03-12 18:00:00,76.7,27.2,29.98,SSE,163,5.0,6.0,16,0.00,,,0.00,VWS V14.01,2013-03-13 01:00:00,
2013-03-12 18:05:00,76.4,29.8,29.99,SSE,155,4.0,5.0,18,0.00,,,0.00,VWS V14.01,2013-03-13 01:05:00,
2013-03-12 18:10:00,76.1,29.6,29.99,SE,135,4.0,5.0,18,0.00,,,0.00,VWS V14.01,2013-03-13 01:10:00,
2013-03-12 18:15:00,76.0,29.5,29.99,SSE,160,5.0,6.0,18,0.00,,,0.00,VWS V14.01,2013-03-13 01:15:00,
2013-03-12 18:20:00,75.6,29.1,29.99,SSE,150,3.0,5.0,18,0.00,,,0.00,VWS V14.01,2013-03-13 01:20:00,
2013-03-12 18:25:00,74.9,31.2,29.99,SE,144,4.0,5.0,20,0.00,,,0.00,VWS V14.01,2013-03-13 01:25:00,
2013-03-12 18:30:00,74.6,29.7,29.99,SSW,212,4.0,4.0,19,0.00,,,0.00,VWS V14.01,2013-03-13 01:30:00,
2013-03-12 18:35:00,74.9,28.6,29.99,SSE,166,2.0,4.0,18,0.00,,,0.00,VWS V14.01,2013-03-13 01:35:00,
2013-03-12 18:40:00,74.9,27.2,29.99,SSW,196,2.0,7.0,17,0.00,,,0.00,VWS V14.01,2013-03-13 01:40:00,
2013-03-12 18:45:00,75.1,25.9,29.99,SW,226,0.0,0.0,16,0.00,,,0.00,VWS V14.01,2013-03-13 01:45:00,
2013-03-12 18:50:00,74.7,25.6,29.99,WNW,301,0.0,2.0,16,0.00,,,0.00,VWS V14.01,2013-03-13 01:50:00,
2013-03-12 18:55:00,74.5,23.9,29.99,WSW,252,0.0,0.0,15,0.00,,,0.00,VWS V14.01,2013-03-13 01:55:00,
2013-03-12 19:00:00,74.9,24.2,30.00,NW,312,3.0,4.0,15,0.00,,,0.00,VWS V14.01,2013-03-13 02:00:00,
2013-03-12 19:05:00,74.7,25.6,30.00,NW,308,0.0,0.0,16,0.00,,,0.00,VWS V14.01,2013-03-13 02:05:00,
2013-03-12 19:10:00,74.2,25.2,30.00,WNW,288,2.0,2.0,16,0.00,,,0.00,VWS V14.01,2013-03-13 02:10:00,
2013-03-12 19:15:00,74.0,25.0,30.00,NW,312,2.0,2.0,16,0.00,,,0.00,VWS V14.01,2013-03-13 02:15:00,
2013-03-12 19:20:00,73.7,27.6,30.00,NW,318,6.0,6.0,18,0.00,,,0.00,VWS V14.01,2013-03-13 02:20:00,
2013-03-12 19:25:00,73.6,28.8,30.01,NW,310,5.0,6.0,19,0.00,,,0.00,VWS V14.01,2013-03-13 02:25:00,
2013-03-12 19:30:00,73.5,30.0,30.01,WNW,301,4.0,5.0,20,0.00,,,0.00,VWS V14.01,2013-03-13 02:30:00,
2013-03-12 19:35:00,72.9,33.0,30.01,NW,304,3.0,4.0,23,0.00,,,0.00,VWS V14.01,2013-03-13 02:35:00,
2013-03-12 19:40:00,72.5,33.7,30.01,WNW,285,5.0,5.0,24,0.00,,,0.00,VWS V14.01,2013-03-13 02:40:00,
2013-03-12 19:45:00,72.1,36.3,30.01,NW,304,2.0,2.0,27,0.00,,,0.00,VWS V14.01,2013-03-13 02:45:00,
2013-03-12 19:50:00,71.6,38.6,30.01,NW,314,4.0,5.0,30,0.00,,,0.00,VWS V14.01,2013-03-13 02:50:00,
2013-03-12 19:55:00,71.2,39.9,30.02,NW,311,4.0,4.0,32,0.00,,,0.00,VWS V14.01,2013-03-13 02:55:00,
2013-03-12 20:00:00,70.7,41.7,30.02,NW,326,5.0,6.0,35,0.00,,,0.00,VWS V14.01,2013-03-13 03:00:00,
2013-03-12 20:05:00,70.5,42.3,30.02,NW,324,3.0,6.0,36,0.00,,,0.00,VWS V14.01,2013-03-13 03:05:00,
2013-03-12 20:10:00,69.9,41.8,30.02,WNW,283,3.0,4.0,36,0.00,,,0.00,VWS V14.01,2013-03-13 03:10:00,
2013-03-12 20:15:00,69.8,42.4,30.02,NW,311,5.0,6.0,37,0.00,,,0.00,VWS V14.01,2013-03-13 03:15:00,
2013-03-12 20:20:00,69.7,42.3,30.02,WNW,282,3.0,3.0,37,0.00,,,0.00,VWS V14.01,2013-03-13 03:20:00,
2013-03-12 20:25:00,69.7,42.3,30.02,West,281,3.0,3.0,37,0.00,,,0.00,VWS V14.01,2013-03-13 03:25:00,
2013-03-12 20:30:00,69.5,42.8,30.03,NW,305,2.0,4.0,38,0.00,,,0.00,VWS V14.01,2013-03-13 03:30:00,
2013-03-12 20:35:00,69.4,42.0,30.03,WNW,287,2.0,3.0,37,0.00,,,0.00,VWS V14.01,2013-03-13 03:35:00,
2013-03-12 20:40:00,69.4,41.3,30.03,West,278,2.0,3.0,36,0.00,,,0.00,VWS V14.01,2013-03-13 03:40:00,
2013-03-12 20:45:00,69.7,40.8,30.03,WNW,288,3.0,3.0,35,0.00,,,0.00,VWS V14.01,2013-03-13 03:45:00,
2013-03-12 20:50:00,69.8,40.9,30.03,WNW,297,2.0,3.0,35,0.00,,,0.00,VWS V14.01,2013-03-13 03:50:00,
2013-03-12 20:55:00,69.9,40.3,30.03,WNW,298,2.0,3.0,34,0.00,,,0.00,VWS V14.01,2013-03-13 03:55:00,
2013-03-12 21:00:00,70.1,39.7,30.03,WNW,295,2.0,2.0,33,0.00,,,0.00,VWS V14.01,2013-03-13 04:00:00,
2013-03-12 21:05:00,70.3,39.9,30.03,NW,316,2.0,2.0,33,0.00,,,0.00,VWS V14.01,2013-03-13 04:05:00,
2013-03-12 21:10:00,70.4,39.2,30.03,WNW,294,3.0,4.0,32,0.00,,,0.00,VWS V14.01,2013-03-13 04:10:00,
2013-03-12 21:15:00,70.7,37.8,30.03,WNW,291,3.0,3.0,30,0.00,,,0.00,VWS V14.01,2013-03-13 04:15:00,
2013-03-12 21:20:00,70.9,38.0,30.04,West,277,3.0,4.0,30,0.00,,,0.00,VWS V14.01,2013-03-13 04:20:00,
2013-03-12 21:25:00,70.9,37.1,30.04,WNW,284,3.0,3.0,29,0.00,,,0.00,VWS V14.01,2013-03-13 04:25:00,
2013-03-12 21:30:00,70.7,36.9,30.04,WNW,287,3.0,4.0,29,0.00,,,0.00,VWS V14.01,2013-03-13 04:30:00,
2013-03-12 21:35:00,70.7,36.9,30.04,NW,314,2.0,5.0,29,0.00,,,0.00,VWS V14.01,2013-03-13 04:35:00,
2013-03-12 21:40:00,70.6,36.8,30.04,WNW,298,3.0,3.0,29,0.00,,,0.00,VWS V14.01,2013-03-13 04:40:00,
2013-03-12 21:45:00,70.5,36.7,30.05,West,280,5.0,5.0,29,0.00,,,0.00,VWS V14.01,2013-03-13 04:45:00,
2013-03-12 21:50:00,70.3,36.6,30.05,WNW,293,2.0,3.0,29,0.00,,,0.00,VWS V14.01,2013-03-13 04:50:00,
2013-03-12 21:55:00,70.3,36.6,30.05,NW,312,4.0,4.0,29,0.00,,,0.00,VWS V14.01,2013-03-13 04:55:00,
2013-03-12 22:00:00,70.2,36.5,30.05,NW,311,3.0,3.0,29,0.00,,,0.00,VWS V14.01,2013-03-13 05:00:00,
2013-03-12 22:05:00,70.2,36.5,30.05,WNW,288,2.0,3.0,29,0.00,,,0.00,VWS V14.01,2013-03-13 05:05:00,
2013-03-12 22:10:00,70.1,36.4,30.05,WNW,288,2.0,3.0,29,0.00,,,0.00,VWS V14.01,2013-03-13 05:10:00,
2013-03-12 22:15:00,70.2,36.5,30.05,WNW,285,0.0,3.0,29,0.00,,,0.00,VWS V14.01,2013-03-13 05:15:00,
2013-03-12 22:20:00,70.1,36.4,30.05,West,278,0.0,1.0,29,0.00,,,0.00,VWS V14.01,2013-03-13 05:20:00,
2013-03-12 22:25:00,70.1,36.4,30.05,West,280,0.0,0.0,29,0.00,,,0.00,VWS V14.01,2013-03-13 05:25:00,
2013-03-12 22:30:00,70.4,36.7,30.06,WNW,296,2.0,2.0,29,0.00,,,0.00,VWS V14.01,2013-03-13 05:30:00,
2013-03-12 22:35:00,71.0,37.2,30.06,NW,318,2.0,4.0,29,0.00,,,0.00,VWS V14.01,2013-03-13 05:35:00,
2013-03-12 22:40:00,71.1,36.4,30.06,NW,326,1.0,3.0,28,0.00,,,0.00,VWS V14.01,2013-03-13 05:40:00,
2013-03-12 22:45:00,71.1,36.4,30.06,NNW,333,0.0,1.0,28,0.00,,,0.00,VWS V14.01,2013-03-13 05:45:00,
2013-03-12 22:50:00,71.2,36.5,30.06,NNW,331,1.0,1.0,28,0.00,,,0.00,VWS V14.01,2013-03-13 05:50:00,
2013-03-12 22:55:00,71.1,36.4,30.06,North,351,1.0,1.0,28,0.00,,,0.00,VWS V14.01,2013-03-13 05:55:00,
2013-03-12 23:00:00,71.1,36.4,30.06,NNW,333,1.0,1.0,28,0.00,,,0.00,VWS V14.01,2013-03-13 06:00:00,
2013-03-12 23:05:00,70.9,36.2,30.06,NNW,333,1.0,1.0,28,0.00,,,0.00,VWS V14.01,2013-03-13 06:05:00,
2013-03-12 23:10:00,70.7,36.0,30.06,NNW,333,1.0,1.0,28,0.00,,,0.00,VWS V14.01,2013-03-13 06:10:00,
2013-03-12 23:15:00,70.7,36.0,30.06,NW,324,2.0,2.0,28,0.00,,,0.00,VWS V14.01,2013-03-13 06:15:00,
2013-03-12 23:20:00,70.6,35.9,30.06,NW,326,1.0,1.0,28,0.00,,,0.00,VWS V14.01,2013-03-13 06:20:00,
2013-03-12 23:25:00,70.5,35.9,30.06,NNW,344,1.0,1.0,28,0.00,,,0.00,VWS V14.01,2013-03-13 06:25:00,
2013-03-12 23:30:00,70.2,35.6,30.06,NNW,345,1.0,1.0,28,0.00,,,0.00,VWS V14.01,2013-03-13 06:30:00,
2013-03-12 23:35:00,70.0,36.3,30.06,NNW,344,1.0,1.0,29,0.00,,,0.00,VWS V14.01,2013-03-13 06:35:00,
2013-03-12 23:40:00,69.7,36.0,30.06,NNW,344,1.0,1.0,29,0.00,,,0.00,VWS V14.01,2013-03-13 06:40:00,
2013-03-12 23:45:00,69.7,35.2,30.06,NNW,344,1.0,1.0,28,0.00,,,0.00,VWS V14.01,2013-03-13 06:45:00,
2013-03-12 23:50:00,69.8,35.3,30.06,NNW,344,0.0,0.0,28,0.00,,,0.00,VWS V14.01,2013-03-13 06:50:00,
2013-03-12 23:55:00,69.8,35.3,30.06,NNW,344,1.0,1.0,28,0.00,,,0.00,VWS V14.01,2013-03-13 06:55:00,